Location: �clusier
(49.9361°N, 2.7869°E)
Time: 08:23:11
(UTC+00:00)

Cosmos 1908 - Pass Details

Date: 16 June 2021
Orbit: 509 x 530 km, 82.5° (Epoch: 31 July)

Event Time Altitude Azimuth Distance (km) Brightness Sun altitude
Rises 20:44:41 0° 355° (N) 2,679 7.8 -6.0°
Reaches altitude 10° 20:46:55 10° 2° (N) 1,781 6.7 -6.3°
Maximum altitude 20:50:40 43° 75° (ENE) 751 3.8 -6.7°
Drops below altitude 10° 20:54:21 10° 148° (SSE) 1,755 5.2 -7.0°
Enters shadow 20:54:35 - 149° (SSE) 1,846 5.3 -7.1°
